Hyannis, MA

1:23 AM EST on February 26, 2017 (GMT -0500)
Barnstable Municipal-Boardman-Polando Field

Weather History for KHYA - April, 2012

Change the Weather History Date:

Thursday, April 12, 2012

  Actual Average Record
Temperature  
Mean Temperature 44 °F -  
Max Temperature 52 °F 51 °F 68 °F (1987)
Min Temperature 37 °F 34 °F 22 °F (1976)
Degree Days  
Heating Degree Days 21    
Moisture  
Dew Point 40 °F    
Average Humidity 82    
Maximum Humidity 96    
Minimum Humidity 68    
Precipitation  
Precipitation 0.00 in - - ()
Sea Level Pressure  
Sea Level Pressure 29.93 in    
Wind  
Wind Speed 6 mph (North)    
Max Wind Speed 16 mph    
Max Gust Speed 24 mph    
Visibility 10 miles    
Events      
Averages and records for this station are not official NWS values.
T = Trace of Precipitation, MM = Missing Value Source: NWS Daily Summary

Daily Weather History Graph

Daily Weather History Graph

Search for Another Location

Airport or City:

Trip Planner

Search our weather history database for the weather conditions in past years. The results will help you decide how hot, cold, wet, or windy it might be!

Date:

Astronomy

Apr. 12, 2012 Rise Set
Actual Time 6:05 AM EDT 7:19 PM EDT
Civil Twilight 5:36 AM EDT 7:47 PM EDT
Nautical Twilight 5:02 AM EDT 8:22 PM EDT
Astronomical Twilight 4:26 AM EDT 8:58 PM EDT
Moon 1:06 AM EDT (4/12) 10:53 AM EDT (4/12)
Length of Visible Light 14h 11m
Length of Day
13h 13m
Waning Gibbous, 59% of the Moon is Illuminated
Apr 12
Waning Gibbous
Apr 13
Last Quarter
Apr 21
New
Apr 29
First Quarter
May 5
Full

Hourly Weather History & Observations

Time (EDT) Temp. Windchill Dew Point Humidity Pressure Visibility Wind Dir Wind Speed Gust Speed Precip Events Conditions
12:56 AM 41.0 °F - 39.9 °F 96% 29.83 in 10.0 mi Calm Calm - N/A   Clear
1:56 AM 42.1 °F 40.2 °F 39.9 °F 92% 29.83 in 10.0 mi North 3.5 mph - N/A   Overcast
2:56 AM 44.6 °F 41.4 °F 41.0 °F 87% 29.82 in 10.0 mi North 5.8 mph - N/A   Overcast
3:56 AM 45.0 °F 42.6 °F 42.1 °F 90% 29.83 in 10.0 mi NE 4.6 mph - N/A   Overcast
4:56 AM 43.0 °F 39.5 °F 41.0 °F 93% 29.83 in 10.0 mi North 5.8 mph - N/A   Scattered Clouds
5:49 AM 42.8 °F 39.3 °F 41.0 °F 93% 29.85 in 10.0 mi NNW 5.8 mph - N/A   Scattered Clouds
5:56 AM 43.0 °F 39.5 °F 41.0 °F 93% 29.86 in 10.0 mi North 5.8 mph - N/A   Mostly Cloudy
6:13 AM 42.8 °F 39.3 °F 41.0 °F 93% 29.86 in 10.0 mi North 5.8 mph - N/A   Mostly Cloudy
6:56 AM 44.1 °F 40.8 °F 41.0 °F 89% 29.87 in 10.0 mi North 5.8 mph - N/A   Overcast
7:56 AM 45.0 °F 41.2 °F 39.9 °F 82% 29.88 in 10.0 mi North 6.9 mph - N/A   Scattered Clouds
8:56 AM 48.0 °F - 41.0 °F 77% 29.89 in 10.0 mi North 13.8 mph - N/A   Scattered Clouds
9:56 AM 48.9 °F - 41.0 °F 74% 29.91 in 10.0 mi NNE 12.7 mph - N/A   Partly Cloudy
10:15 AM 48.2 °F - 41.0 °F 76% 29.91 in 10.0 mi North 12.7 mph 18.4 mph N/A   Mostly Cloudy
10:56 AM 48.0 °F - 41.0 °F 77% 29.92 in 10.0 mi North 10.4 mph 21.9 mph N/A   Scattered Clouds
11:56 AM 50.0 °F - 39.9 °F 68% 29.92 in 10.0 mi North 16.1 mph 24.2 mph N/A   Mostly Cloudy
12:56 PM 50.0 °F - 39.9 °F 68% 29.92 in 10.0 mi North 11.5 mph 18.4 mph N/A   Partly Cloudy
1:56 PM 50.0 °F - 41.0 °F 71% 29.92 in 10.0 mi North 11.5 mph - N/A   Partly Cloudy
2:15 PM 51.8 °F - 42.8 °F 71% 29.92 in 10.0 mi North 15.0 mph - N/A   Mostly Cloudy
2:56 PM 50.0 °F - 39.9 °F 68% 29.94 in 10.0 mi NNE 11.5 mph 19.6 mph N/A   Mostly Cloudy
3:56 PM 48.2 °F - 41.0 °F 76% 29.93 in 10.0 mi North 15.0 mph 20.7 mph N/A   Mostly Cloudy
4:56 PM 48.2 °F - 39.2 °F 71% 29.96 in 10.0 mi NNE 9.2 mph - N/A   Overcast
5:14 PM 46.4 °F 41.9 °F 39.2 °F 76% 29.96 in 10.0 mi North 9.2 mph - N/A   Overcast
5:21 PM 46.4 °F 42.4 °F 39.2 °F 76% 29.97 in 10.0 mi North 8.1 mph - N/A   Overcast
5:32 PM 46.4 °F 42.4 °F 39.2 °F 76% 29.97 in 10.0 mi North 8.1 mph - N/A   Overcast
5:56 PM 46.9 °F - 39.9 °F 77% 29.98 in 10.0 mi North 6.9 mph - N/A   Overcast
6:56 PM 45.0 °F 42.6 °F 39.9 °F 82% 29.99 in 10.0 mi North 4.6 mph - N/A   Partly Cloudy
7:49 PM 44.6 °F 41.4 °F 39.2 °F 81% 30.00 in 10.0 mi North 5.8 mph - N/A   Mostly Cloudy
7:56 PM 45.0 °F 42.6 °F 39.9 °F 82% 30.01 in 10.0 mi North 4.6 mph - N/A   Mostly Cloudy
8:09 PM 44.6 °F 42.2 °F 39.2 °F 81% 30.01 in 10.0 mi North 4.6 mph - N/A   Scattered Clouds
8:56 PM 43.0 °F 40.3 °F 39.0 °F 86% 30.02 in 10.0 mi North 4.6 mph - N/A   Clear
9:56 PM 39.0 °F - 37.0 °F 93% 30.03 in 10.0 mi Calm Calm - N/A   Clear
10:56 PM 37.4 °F 34.9 °F 35.6 °F 93% 30.04 in 10.0 mi NNW 3.5 mph - N/A   Partly Cloudy
11:56 PM 41.0 °F 38.0 °F 39.2 °F 93% 30.04 in 10.0 mi NW 4.6 mph - N/A   Clear